Time,TemperatureF,DewpointF,PressureIn,WindDirection,WindDirectionDegrees,WindSpeedMPH,WindSpeedGustMPH,Humidity,HourlyPrecipIn,Conditions,Clouds,dailyrainin,SoftwareType,DateUTC
2013-10-18 00:03:00,39.9,37.2,30.10,West,281,1.0,5.0,83,0.00,,,0.00,meteohub,2013-10-18 05:03:00,
2013-10-18 00:08:00,39.9,36.9,30.10,WNW,284,0.0,6.0,83,0.00,,,0.00,meteohub,2013-10-18 05:08:00,
2013-10-18 00:13:00,39.0,36.7,30.10,WNW,284,1.0,6.0,84,0.00,,,0.00,meteohub,2013-10-18 05:13:00,
2013-10-18 00:18:00,39.0,36.5,30.10,WNW,290,2.0,6.0,85,0.00,,,0.00,meteohub,2013-10-18 05:18:00,
2013-10-18 00:24:00,37.9,36.1,30.11,WNW,292,3.0,6.0,85,0.00,,,0.00,meteohub,2013-10-18 05:24:00,
2013-10-18 00:29:00,37.9,36.1,30.11,WNW,288,2.0,6.0,87,0.00,,,0.00,meteohub,2013-10-18 05:29:00,
2013-10-18 00:34:00,37.0,36.0,30.11,WNW,287,2.0,6.0,87,0.00,,,0.00,meteohub,2013-10-18 05:34:00,
2013-10-18 00:39:00,37.0,36.0,30.10,WNW,287,0.0,6.0,88,0.00,,,0.00,meteohub,2013-10-18 05:39:00,
2013-10-18 00:44:00,37.0,35.6,30.10,WNW,287,0.0,6.0,88,0.00,,,0.00,meteohub,2013-10-18 05:44:00,
2013-10-18 00:49:00,37.0,35.4,30.10,WNW,287,0.0,4.0,88,0.00,,,0.00,meteohub,2013-10-18 05:49:00,
2013-10-18 00:54:00,36.0,35.1,30.10,WNW,287,0.0,2.0,88,0.00,,,0.00,meteohub,2013-10-18 05:54:00,
2013-10-18 00:59:00,36.0,35.4,30.10,WNW,287,0.0,2.0,88,0.00,,,0.00,meteohub,2013-10-18 05:59:00,
2013-10-18 01:04:00,36.0,35.2,30.10,WNW,287,0.0,2.0,88,0.00,,,0.00,meteohub,2013-10-18 06:04:00,
2013-10-18 01:09:00,35.1,34.9,30.10,WNW,287,0.0,2.0,89,0.00,,,0.00,meteohub,2013-10-18 06:09:00,
2013-10-18 01:14:00,35.1,34.7,30.10,WNW,287,0.0,2.0,89,0.00,,,0.00,meteohub,2013-10-18 06:14:00,
2013-10-18 01:19:00,35.1,34.5,30.10,WNW,287,0.0,1.0,89,0.00,,,0.00,meteohub,2013-10-18 06:19:00,
2013-10-18 01:24:00,35.1,34.3,30.11,WNW,287,0.0,1.0,89,0.00,,,0.00,meteohub,2013-10-18 06:24:00,
2013-10-18 01:29:00,34.0,34.5,30.11,WNW,287,0.0,1.0,89,0.00,,,0.00,meteohub,2013-10-18 06:29:00,
2013-10-18 01:35:00,34.0,34.3,30.11,WNW,287,0.0,2.0,90,0.00,,,0.00,meteohub,2013-10-18 06:35:00,
2013-10-18 01:40:00,34.0,34.2,30.11,WNW,287,0.0,3.0,90,0.00,,,0.00,meteohub,2013-10-18 06:40:00,
2013-10-18 01:45:00,34.0,34.0,30.12,WNW,287,0.0,3.0,90,0.00,,,0.00,meteohub,2013-10-18 06:45:00,
2013-10-18 01:50:00,34.0,33.4,30.12,WNW,287,0.0,2.0,90,0.00,,,0.00,meteohub,2013-10-18 06:50:00,
2013-10-18 01:55:00,33.1,33.4,30.11,WNW,287,0.0,3.0,90,0.00,,,0.00,meteohub,2013-10-18 06:55:00,
2013-10-18 02:00:00,33.1,33.3,30.11,WNW,287,0.0,3.0,90,0.00,,,0.00,meteohub,2013-10-18 07:00:00,
2013-10-18 02:05:00,33.1,33.1,30.11,WNW,287,0.0,3.0,90,0.00,,,0.00,meteohub,2013-10-18 07:05:00,
2013-10-18 02:10:00,33.1,33.4,30.11,WNW,287,3.0,3.0,91,0.00,,,0.00,meteohub,2013-10-18 07:10:00,
2013-10-18 02:15:00,33.1,33.6,30.11,WNW,287,1.0,5.0,91,0.00,,,0.00,meteohub,2013-10-18 07:15:00,
2013-10-18 02:20:00,33.1,33.8,30.11,WNW,287,0.0,5.0,92,0.00,,,0.00,meteohub,2013-10-18 07:20:00,
2013-10-18 02:25:00,33.1,33.4,30.11,WNW,287,0.0,5.0,92,0.00,,,0.00,meteohub,2013-10-18 07:25:00,
2013-10-18 02:30:00,33.1,33.4,30.11,WNW,287,0.0,5.0,92,0.00,,,0.00,meteohub,2013-10-18 07:30:00,
2013-10-18 02:35:00,33.1,33.3,30.11,WNW,288,0.0,5.0,92,0.00,,,0.00,meteohub,2013-10-18 07:35:00,
2013-10-18 02:40:00,33.1,33.1,30.11,WNW,288,0.0,5.0,93,0.00,,,0.00,meteohub,2013-10-18 07:40:00,
2013-10-18 02:46:00,33.1,33.3,30.12,WNW,288,1.0,4.0,92,0.00,,,0.00,meteohub,2013-10-18 07:46:00,
2013-10-18 02:51:00,32.0,33.1,30.12,WNW,288,3.0,4.0,92,0.00,,,0.00,meteohub,2013-10-18 07:51:00,
2013-10-18 02:56:00,32.0,32.9,30.12,WNW,288,3.0,4.0,92,0.00,,,0.00,meteohub,2013-10-18 07:56:00,
2013-10-18 03:01:00,32.0,32.9,30.12,WNW,292,3.0,4.0,92,0.00,,,0.00,meteohub,2013-10-18 08:01:00,
2013-10-18 03:07:00,32.0,33.1,30.12,WNW,290,3.0,6.0,92,0.00,,,0.00,meteohub,2013-10-18 08:07:00,
2013-10-18 03:12:00,32.0,33.1,30.12,WNW,291,1.0,6.0,92,0.00,,,0.00,meteohub,2013-10-18 08:12:00,
2013-10-18 03:17:00,32.0,33.1,30.12,WNW,291,1.0,6.0,93,0.00,,,0.00,meteohub,2013-10-18 08:17:00,
2013-10-18 03:22:00,32.0,32.7,30.11,WNW,300,0.0,5.0,94,0.00,,,0.00,meteohub,2013-10-18 08:22:00,
2013-10-18 03:27:00,33.1,32.7,30.12,WNW,301,3.0,6.0,93,0.00,,,0.00,meteohub,2013-10-18 08:27:00,
2013-10-18 03:32:00,32.0,32.9,30.12,WNW,284,3.0,6.0,93,0.00,,,0.00,meteohub,2013-10-18 08:32:00,
2013-10-18 03:37:00,32.0,32.7,30.12,WNW,293,4.0,8.0,93,0.00,,,0.00,meteohub,2013-10-18 08:37:00,
2013-10-18 03:42:00,32.0,32.5,30.12,WNW,285,2.0,8.0,93,0.00,,,0.00,meteohub,2013-10-18 08:42:00,
2013-10-18 03:47:00,32.0,32.4,30.12,WNW,284,4.0,8.0,93,0.00,,,0.00,meteohub,2013-10-18 08:47:00,
2013-10-18 03:52:00,32.0,32.0,30.12,WNW,284,1.0,8.0,93,0.00,,,0.00,meteohub,2013-10-18 08:52:00,
2013-10-18 03:57:00,32.0,31.5,30.12,WNW,284,2.0,6.0,93,0.00,,,0.00,meteohub,2013-10-18 08:57:00,
2013-10-18 04:02:00,32.0,31.6,30.12,WNW,284,2.0,5.0,92,0.00,,,0.00,meteohub,2013-10-18 09:02:00,
2013-10-18 04:07:00,30.9,31.8,30.12,WNW,284,3.0,4.0,92,0.00,,,0.00,meteohub,2013-10-18 09:07:00,
2013-10-18 04:12:00,30.9,31.8,30.12,WNW,284,4.0,5.0,93,0.00,,,0.00,meteohub,2013-10-18 09:12:00,
2013-10-18 04:17:00,30.9,32.0,30.12,WNW,284,5.0,6.0,93,0.00,,,0.00,meteohub,2013-10-18 09:17:00,
2013-10-18 04:22:00,30.9,31.6,30.12,WNW,284,3.0,6.0,93,0.00,,,0.00,meteohub,2013-10-18 09:22:00,
2013-10-18 04:27:00,30.9,31.1,30.12,WNW,284,4.0,6.0,93,0.00,,,0.00,meteohub,2013-10-18 09:27:00,
2013-10-18 04:32:00,30.9,31.1,30.12,WNW,288,4.0,6.0,93,0.00,,,0.00,meteohub,2013-10-18 09:32:00,
2013-10-18 04:37:00,30.9,30.9,30.13,WNW,288,5.0,6.0,93,0.00,,,0.00,meteohub,2013-10-18 09:37:00,
2013-10-18 04:42:00,30.9,31.1,30.13,WNW,288,2.0,6.0,93,0.00,,,0.00,meteohub,2013-10-18 09:42:00,
2013-10-18 04:47:00,30.9,30.7,30.13,WNW,288,3.0,6.0,93,0.00,,,0.00,meteohub,2013-10-18 09:47:00,
2013-10-18 04:52:00,30.9,30.6,30.13,WNW,288,4.0,5.0,93,0.00,,,0.00,meteohub,2013-10-18 09:52:00,
2013-10-18 04:57:00,30.9,30.7,30.13,WNW,286,3.0,5.0,93,0.00,,,0.00,meteohub,2013-10-18 09:57:00,
2013-10-18 05:02:00,30.0,30.9,30.13,WNW,286,5.0,7.0,93,0.00,,,0.00,meteohub,2013-10-18 10:02:00,
2013-10-18 05:07:00,30.0,31.1,30.13,WNW,284,3.0,7.0,93,0.00,,,0.00,meteohub,2013-10-18 10:07:00,
2013-10-18 05:12:00,30.0,31.1,30.13,WNW,288,4.0,7.0,93,0.00,,,0.00,meteohub,2013-10-18 10:12:00,
2013-10-18 05:17:00,30.0,30.7,30.14,WNW,288,2.0,8.0,93,0.00,,,0.00,meteohub,2013-10-18 10:17:00,
2013-10-18 05:22:00,30.0,30.6,30.14,WNW,288,4.0,8.0,94,0.00,,,0.00,meteohub,2013-10-18 10:22:00,
2013-10-18 05:27:00,30.9,30.2,30.14,WNW,288,2.0,7.0,94,0.00,,,0.00,meteohub,2013-10-18 10:27:00,
2013-10-18 05:32:00,30.9,30.4,30.14,WNW,288,1.0,5.0,94,0.00,,,0.00,meteohub,2013-10-18 10:32:00,
2013-10-18 05:37:00,30.9,30.2,30.14,WNW,288,1.0,5.0,94,0.00,,,0.00,meteohub,2013-10-18 10:37:00,
2013-10-18 05:42:00,30.9,30.4,30.14,WNW,288,2.0,4.0,94,0.00,,,0.00,meteohub,2013-10-18 10:42:00,
2013-10-18 05:47:00,30.9,30.6,30.14,WNW,288,1.0,5.0,94,0.00,,,0.00,meteohub,2013-10-18 10:47:00,
2013-10-18 05:52:00,30.9,30.7,30.13,WNW,288,2.0,5.0,94,0.00,,,0.00,meteohub,2013-10-18 10:52:00,
2013-10-18 05:57:00,30.9,30.7,30.13,WNW,288,2.0,4.0,94,0.00,,,0.00,meteohub,2013-10-18 10:57:00,
2013-10-18 06:02:00,30.9,30.9,30.13,WNW,288,0.0,4.0,94,0.00,,,0.00,meteohub,2013-10-18 11:02:00,
2013-10-18 06:07:00,30.9,30.7,30.13,WNW,288,0.0,3.0,94,0.00,,,0.00,meteohub,2013-10-18 11:07:00,
2013-10-18 06:12:00,30.9,30.9,30.13,WNW,288,0.0,3.0,94,0.00,,,0.00,meteohub,2013-10-18 11:12:00,
2013-10-18 06:17:00,30.9,30.9,30.13,WNW,288,0.0,3.0,94,0.00,,,0.00,meteohub,2013-10-18 11:17:00,
2013-10-18 06:22:00,30.9,30.9,30.13,WNW,288,0.0,3.0,94,0.00,,,0.00,meteohub,2013-10-18 11:22:00,
2013-10-18 06:27:00,30.9,30.9,30.14,WNW,288,0.0,0.0,94,0.00,,,0.00,meteohub,2013-10-18 11:27:00,
2013-10-18 06:32:00,30.9,30.9,30.14,WNW,288,0.0,0.0,94,0.00,,,0.00,meteohub,2013-10-18 11:32:00,
2013-10-18 06:37:00,30.9,30.7,30.14,WNW,288,0.0,0.0,94,0.00,,,0.00,meteohub,2013-10-18 11:37:00,
2013-10-18 06:42:00,32.0,30.7,30.14,WNW,288,0.0,2.0,94,0.00,,,0.00,meteohub,2013-10-18 11:42:00,
2013-10-18 06:47:00,32.0,30.7,30.15,WNW,288,2.0,3.0,94,0.00,,,0.00,meteohub,2013-10-18 11:47:00,
2013-10-18 06:52:00,32.0,31.1,30.15,WNW,288,2.0,3.0,94,0.00,,,0.00,meteohub,2013-10-18 11:52:00,
2013-10-18 06:57:00,32.0,31.1,30.15,WNW,288,0.0,3.0,94,0.00,,,0.00,meteohub,2013-10-18 11:57:00,
2013-10-18 07:02:00,32.0,31.1,30.15,WNW,288,1.0,3.0,94,0.00,,,0.00,meteohub,2013-10-18 12:02:00,
2013-10-18 07:07:00,32.0,31.1,30.15,WNW,288,1.0,3.0,94,0.00,,,0.00,meteohub,2013-10-18 12:07:00,
2013-10-18 07:12:00,32.0,31.3,30.15,WNW,288,1.0,4.0,94,0.00,,,0.00,meteohub,2013-10-18 12:12:00,
2013-10-18 07:17:00,32.0,31.3,30.15,WNW,288,1.0,4.0,94,0.00,,,0.00,meteohub,2013-10-18 12:17:00,
2013-10-18 07:22:00,32.0,31.3,30.15,WNW,288,4.0,4.0,94,0.00,,,0.00,meteohub,2013-10-18 12:22:00,
2013-10-18 07:27:00,32.0,31.6,30.15,WNW,288,4.0,6.0,94,0.00,,,0.00,meteohub,2013-10-18 12:27:00,
2013-10-18 07:32:00,32.0,31.5,30.15,WNW,297,2.0,6.0,94,0.00,,,0.00,meteohub,2013-10-18 12:32:00,
2013-10-18 07:37:00,33.1,31.6,30.15,WNW,284,6.0,7.0,94,0.00,,,0.00,meteohub,2013-10-18 12:37:00,
2013-10-18 07:42:00,33.1,31.6,30.15,WNW,302,2.0,7.0,94,0.00,,,0.00,meteohub,2013-10-18 12:42:00,
2013-10-18 07:47:00,33.1,31.8,30.15,WNW,286,5.0,7.0,94,0.00,,,0.00,meteohub,2013-10-18 12:47:00,
2013-10-18 07:52:00,33.1,31.8,30.15,West,281,5.0,8.0,94,0.00,,,0.00,meteohub,2013-10-18 12:52:00,
2013-10-18 07:57:00,33.1,32.0,30.15,West,275,5.0,8.0,94,0.00,,,0.00,meteohub,2013-10-18 12:57:00,
2013-10-18 08:02:00,33.1,31.6,30.15,WNW,290,4.0,8.0,94,0.00,,,0.00,meteohub,2013-10-18 13:02:00,
2013-10-18 08:07:00,33.1,31.6,30.15,WNW,289,2.0,8.0,95,0.00,,,0.00,meteohub,2013-10-18 13:07:00,
2013-10-18 08:12:00,33.1,32.0,30.15,WNW,286,5.0,8.0,95,0.00,,,0.00,meteohub,2013-10-18 13:12:00,
2013-10-18 08:17:00,33.1,32.0,30.15,WNW,288,0.0,8.0,94,0.00,,,0.00,meteohub,2013-10-18 13:17:00,
2013-10-18 08:22:00,33.1,32.2,30.16,WNW,288,4.0,7.0,94,0.00,,,0.00,meteohub,2013-10-18 13:22:00,
2013-10-18 08:27:00,34.0,32.2,30.16,WNW,288,4.0,6.0,94,0.00,,,0.00,meteohub,2013-10-18 13:27:00,
2013-10-18 08:32:00,34.0,32.2,30.17,West,275,4.0,7.0,95,0.00,,,0.00,meteohub,2013-10-18 13:32:00,
2013-10-18 08:37:00,34.0,32.7,30.17,WNW,288,8.0,8.0,95,0.00,,,0.00,meteohub,2013-10-18 13:37:00,
2013-10-18 08:42:00,34.0,32.5,30.17,WNW,286,7.0,9.0,94,0.00,,,0.00,meteohub,2013-10-18 13:42:00,
2013-10-18 08:47:00,34.0,32.5,30.17,WNW,284,6.0,9.0,94,0.00,,,0.00,meteohub,2013-10-18 13:47:00,
2013-10-18 08:52:00,35.1,32.7,30.18,WNW,289,3.0,9.0,94,0.00,,,0.00,meteohub,2013-10-18 13:52:00,
2013-10-18 08:57:00,35.1,32.9,30.18,WNW,286,2.0,9.0,94,0.00,,,0.00,meteohub,2013-10-18 13:57:00,
2013-10-18 09:02:00,35.1,32.9,30.18,WNW,288,5.0,9.0,94,0.00,,,0.00,meteohub,2013-10-18 14:02:00,
2013-10-18 09:07:00,35.1,33.1,30.18,WNW,290,5.0,8.0,94,0.00,,,0.00,meteohub,2013-10-18 14:07:00,
2013-10-18 09:12:00,36.0,33.3,30.18,West,273,5.0,8.0,94,0.00,,,0.00,meteohub,2013-10-18 14:12:00,
2013-10-18 09:17:00,36.0,33.1,30.18,West,280,0.0,8.0,93,0.00,,,0.00,meteohub,2013-10-18 14:17:00,
2013-10-18 09:22:00,36.0,33.3,30.18,West,268,2.0,8.0,93,0.00,,,0.00,meteohub,2013-10-18 14:22:00,
2013-10-18 09:27:00,36.0,33.4,30.18,West,264,2.0,6.0,92,0.00,,,0.00,meteohub,2013-10-18 14:27:00,
2013-10-18 09:32:00,37.0,33.6,30.17,WNW,286,4.0,6.0,92,0.00,,,0.00,meteohub,2013-10-18 14:32:00,
2013-10-18 09:37:00,37.0,33.4,30.17,WNW,298,0.0,6.0,92,0.00,,,0.00,meteohub,2013-10-18 14:37:00,
2013-10-18 09:42:00,37.0,33.4,30.17,WNW,290,1.0,6.0,91,0.00,,,0.00,meteohub,2013-10-18 14:42:00,
2013-10-18 09:47:00,37.9,33.6,30.18,WNW,293,1.0,7.0,89,0.00,,,0.00,meteohub,2013-10-18 14:47:00,
2013-10-18 09:52:00,37.9,33.3,30.18,West,279,6.0,7.0,88,0.00,,,0.00,meteohub,2013-10-18 14:52:00,
2013-10-18 09:57:00,37.9,33.4,30.18,WNW,288,5.0,8.0,88,0.00,,,0.00,meteohub,2013-10-18 14:57:00,
2013-10-18 10:02:00,37.9,33.3,30.18,West,277,2.0,8.0,87,0.00,,,0.00,meteohub,2013-10-18 15:02:00,
2013-10-18 10:07:00,39.0,33.4,30.18,WNW,294,4.0,8.0,86,0.00,,,0.00,meteohub,2013-10-18 15:07:00,
2013-10-18 10:12:00,39.0,33.8,30.18,WNW,284,1.0,7.0,85,0.00,,,0.00,meteohub,2013-10-18 15:12:00,
2013-10-18 10:17:00,39.0,33.8,30.18,West,276,6.0,7.0,84,0.00,,,0.00,meteohub,2013-10-18 15:17:00,
2013-10-18 10:22:00,39.9,34.0,30.18,WNW,282,4.0,7.0,85,0.00,,,0.00,meteohub,2013-10-18 15:22:00,
2013-10-18 10:27:00,39.9,34.3,30.19,West,279,3.0,7.0,86,0.00,,,0.00,meteohub,2013-10-18 15:27:00,
2013-10-18 10:32:00,39.9,34.3,30.19,WNW,297,7.0,8.0,84,0.00,,,0.00,meteohub,2013-10-18 15:32:00,
2013-10-18 10:37:00,41.0,34.2,30.19,WNW,286,5.0,8.0,82,0.00,,,0.00,meteohub,2013-10-18 15:37:00,
2013-10-18 10:42:00,41.0,34.3,30.19,West,265,3.0,8.0,84,0.00,,,0.00,meteohub,2013-10-18 15:42:00,
2013-10-18 10:47:00,41.0,34.3,30.18,WNW,284,4.0,8.0,81,0.00,,,0.00,meteohub,2013-10-18 15:47:00,
2013-10-18 10:52:00,42.1,35.1,30.18,WNW,286,0.0,7.0,81,0.00,,,0.00,meteohub,2013-10-18 15:52:00,
2013-10-18 10:57:00,42.1,34.9,30.18,West,281,3.0,7.0,81,0.00,,,0.00,meteohub,2013-10-18 15:57:00,
2013-10-18 11:02:00,43.0,35.2,30.18,West,281,4.0,7.0,82,0.00,,,0.00,meteohub,2013-10-18 16:02:00,
2013-10-18 11:07:00,43.0,34.7,30.18,West,281,0.0,7.0,78,0.00,,,0.00,meteohub,2013-10-18 16:07:00,
2013-10-18 11:12:00,43.0,35.1,30.17,WNW,287,0.0,7.0,78,0.00,,,0.00,meteohub,2013-10-18 16:12:00,
2013-10-18 11:17:00,44.1,35.2,30.17,WNW,287,0.0,6.0,77,0.00,,,0.00,meteohub,2013-10-18 16:17:00,
2013-10-18 11:22:00,44.1,35.2,30.17,SW,216,2.0,6.0,75,0.00,,,0.00,meteohub,2013-10-18 16:22:00,
2013-10-18 11:27:00,45.0,35.2,30.17,West,278,0.0,6.0,76,0.00,,,0.00,meteohub,2013-10-18 16:27:00,
2013-10-18 11:32:00,45.0,34.9,30.17,West,281,5.0,6.0,73,0.00,,,0.00,meteohub,2013-10-18 16:32:00,
2013-10-18 11:37:00,45.0,35.1,30.17,West,281,0.0,6.0,72,0.00,,,0.00,meteohub,2013-10-18 16:37:00,
2013-10-18 11:42:00,46.0,34.9,30.17,WNW,282,0.0,6.0,72,0.00,,,0.00,meteohub,2013-10-18 16:42:00,
2013-10-18 11:47:00,46.0,35.1,30.17,WNW,285,3.0,6.0,71,0.00,,,0.00,meteohub,2013-10-18 16:47:00,
2013-10-18 11:52:00,46.0,34.5,30.16,NW,311,0.0,7.0,69,0.00,,,0.00,meteohub,2013-10-18 16:52:00,
2013-10-18 11:57:00,46.0,35.1,30.16,West,273,3.0,8.0,69,0.00,,,0.00,meteohub,2013-10-18 16:57:00,
2013-10-18 12:02:00,46.9,35.2,30.16,WNW,301,0.0,8.0,68,0.00,,,0.00,meteohub,2013-10-18 17:02:00,
2013-10-18 12:07:00,46.9,34.2,30.16,NW,322,4.0,8.0,66,0.00,,,0.00,meteohub,2013-10-18 17:07:00,
2013-10-18 12:12:00,46.9,33.8,30.17,WNW,289,5.0,6.0,66,0.00,,,0.00,meteohub,2013-10-18 17:12:00,
2013-10-18 12:17:00,46.9,33.4,30.17,West,281,5.0,6.0,64,0.00,,,0.00,meteohub,2013-10-18 17:17:00,
2013-10-18 12:22:00,46.9,33.6,30.17,NW,308,2.0,8.0,65,0.00,,,0.00,meteohub,2013-10-18 17:22:00,
2013-10-18 12:27:00,46.9,33.6,30.17,NW,318,3.0,8.0,64,0.00,,,0.00,meteohub,2013-10-18 17:27:00,
2013-10-18 12:32:00,46.9,33.3,30.17,WNW,293,2.0,8.0,62,0.00,,,0.00,meteohub,2013-10-18 17:32:00,
2013-10-18 12:37:00,48.0,33.8,30.17,NW,322,3.0,8.0,63,0.00,,,0.00,meteohub,2013-10-18 17:37:00,
2013-10-18 12:40:00,48.0,32.7,30.17,West,276,2.0,8.0,62,0.00,,,0.00,meteohub,2013-10-18 17:40:00,
2013-10-18 12:45:00,48.0,33.3,30.17,NNW,346,0.0,6.0,62,0.00,,,0.00,meteohub,2013-10-18 17:45:00,
2013-10-18 12:50:00,48.0,33.8,30.17,NNW,345,0.0,5.0,61,0.00,,,0.00,meteohub,2013-10-18 17:50:00,
2013-10-18 12:55:00,48.0,33.4,30.16,West,277,5.0,6.0,61,0.00,,,0.00,meteohub,2013-10-18 17:55:00,
2013-10-18 13:00:00,48.0,32.7,30.17,NW,306,3.0,7.0,61,0.00,,,0.00,meteohub,2013-10-18 18:00:00,
2013-10-18 13:05:00,48.0,33.4,30.16,WNW,296,3.0,7.0,62,0.00,,,0.00,meteohub,2013-10-18 18:05:00,
2013-10-18 13:10:00,48.0,33.4,30.16,NW,305,1.0,5.0,59,0.00,,,0.00,meteohub,2013-10-18 18:10:00,
2013-10-18 13:15:00,48.9,32.7,30.16,NNW,336,3.0,5.0,61,0.00,,,0.00,meteohub,2013-10-18 18:15:00,
2013-10-18 13:21:00,48.9,32.9,30.16,NW,314,4.0,7.0,57,0.00,,,0.00,meteohub,2013-10-18 18:21:00,
2013-10-18 13:26:00,48.9,32.0,30.15,NNW,331,2.0,7.0,58,0.00,,,0.00,meteohub,2013-10-18 18:26:00,
2013-10-18 13:31:00,48.9,33.3,30.15,NNW,330,3.0,8.0,57,0.00,,,0.00,meteohub,2013-10-18 18:31:00,
2013-10-18 13:36:00,48.9,31.8,30.14,NW,316,2.0,8.0,57,0.00,,,0.00,meteohub,2013-10-18 18:36:00,
2013-10-18 13:41:00,48.9,32.4,30.14,NW,324,4.0,8.0,57,0.00,,,0.00,meteohub,2013-10-18 18:41:00,
2013-10-18 13:46:00,48.9,32.7,30.14,WNW,298,4.0,7.0,60,0.00,,,0.00,meteohub,2013-10-18 18:46:00,
2013-10-18 13:51:00,50.0,32.9,30.14,WNW,296,0.0,7.0,56,0.00,,,0.00,meteohub,2013-10-18 18:51:00,
2013-10-18 13:56:00,50.0,32.2,30.14,WNW,283,4.0,7.0,59,0.00,,,0.00,meteohub,2013-10-18 18:56:00,
2013-10-18 14:01:00,50.0,32.4,30.13,West,273,4.0,8.0,57,0.00,,,0.00,meteohub,2013-10-18 19:01:00,
2013-10-18 14:06:00,50.0,32.4,30.13,WNW,295,5.0,8.0,54,0.00,,,0.00,meteohub,2013-10-18 19:06:00,
2013-10-18 14:11:00,50.0,32.5,30.13,WSW,254,0.0,8.0,56,0.00,,,0.00,meteohub,2013-10-18 19:11:00,
2013-10-18 14:16:00,51.1,32.2,30.13,WSW,239,0.0,7.0,54,0.00,,,0.00,meteohub,2013-10-18 19:16:00,
2013-10-18 14:21:00,51.1,31.5,30.12,WNW,303,4.0,6.0,58,0.00,,,0.00,meteohub,2013-10-18 19:21:00,
2013-10-18 14:27:00,51.1,31.6,30.12,WNW,296,6.0,9.0,56,0.00,,,0.00,meteohub,2013-10-18 19:27:00,
2013-10-18 14:32:00,52.0,31.1,30.12,WSW,257,4.0,9.0,53,0.00,,,0.00,meteohub,2013-10-18 19:32:00,
2013-10-18 14:37:00,52.0,31.1,30.12,WSW,254,0.0,9.0,52,0.00,,,0.00,meteohub,2013-10-18 19:37:00,
2013-10-18 14:42:00,52.0,31.5,30.12,WSW,256,2.0,7.0,46,0.00,,,0.00,meteohub,2013-10-18 19:42:00,
2013-10-18 14:47:00,52.0,31.8,30.11,West,279,7.0,10.0,49,0.00,,,0.00,meteohub,2013-10-18 19:47:00,
2013-10-18 14:52:00,52.0,29.5,30.11,West,270,0.0,10.0,48,0.00,,,0.00,meteohub,2013-10-18 19:52:00,
2013-10-18 14:57:00,52.0,31.1,30.11,West,271,5.0,10.0,50,0.00,,,0.00,meteohub,2013-10-18 19:57:00,
2013-10-18 15:02:00,52.0,30.2,30.11,WNW,286,5.0,10.0,47,0.00,,,0.00,meteohub,2013-10-18 20:02:00,
2013-10-18 15:07:00,52.0,31.1,30.11,NNW,334,2.0,10.0,46,0.00,,,0.00,meteohub,2013-10-18 20:07:00,
2013-10-18 15:12:00,52.0,29.3,30.11,WNW,289,5.0,10.0,46,0.00,,,0.00,meteohub,2013-10-18 20:12:00,
2013-10-18 15:17:00,52.0,30.0,30.11,WNW,290,7.0,10.0,48,0.00,,,0.00,meteohub,2013-10-18 20:17:00,
2013-10-18 15:22:00,51.1,29.8,30.10,West,276,0.0,10.0,48,0.00,,,0.00,meteohub,2013-10-18 20:22:00,
2013-10-18 15:27:00,51.1,29.8,30.11,WNW,284,2.0,10.0,50,0.00,,,0.00,meteohub,2013-10-18 20:27:00,
2013-10-18 15:32:00,51.1,30.0,30.10,West,271,3.0,10.0,48,0.00,,,0.00,meteohub,2013-10-18 20:32:00,
2013-10-18 15:37:00,51.1,30.2,30.11,WNW,293,8.0,10.0,52,0.00,,,0.00,meteohub,2013-10-18 20:37:00,
2013-10-18 15:42:00,51.1,29.5,30.10,West,276,4.0,10.0,50,0.00,,,0.00,meteohub,2013-10-18 20:42:00,
2013-10-18 15:47:00,51.1,29.8,30.10,West,261,5.0,10.0,49,0.00,,,0.00,meteohub,2013-10-18 20:47:00,
2013-10-18 15:52:00,51.1,30.0,30.11,WSW,244,4.0,11.0,50,0.00,,,0.00,meteohub,2013-10-18 20:52:00,
2013-10-18 15:57:00,52.0,29.7,30.10,West,272,4.0,11.0,49,0.00,,,0.00,meteohub,2013-10-18 20:57:00,
2013-10-18 16:02:00,52.0,29.3,30.11,WSW,258,6.0,11.0,50,0.00,,,0.00,meteohub,2013-10-18 21:02:00,
2013-10-18 16:07:00,52.0,29.3,30.11,West,281,9.0,9.0,49,0.00,,,0.00,meteohub,2013-10-18 21:07:00,
2013-10-18 16:12:00,52.0,28.2,30.11,WSW,250,0.0,10.0,48,0.00,,,0.00,meteohub,2013-10-18 21:12:00,
2013-10-18 16:17:00,52.0,28.4,30.10,WNW,292,5.0,10.0,49,0.00,,,0.00,meteohub,2013-10-18 21:17:00,
2013-10-18 16:22:00,52.0,28.8,30.10,WSW,246,5.0,10.0,48,0.00,,,0.00,meteohub,2013-10-18 21:22:00,
2013-10-18 16:27:00,52.0,29.5,30.10,WNW,292,0.0,10.0,47,0.00,,,0.00,meteohub,2013-10-18 21:27:00,
2013-10-18 16:32:00,53.1,28.4,30.10,WSW,247,4.0,10.0,42,0.00,,,0.00,meteohub,2013-10-18 21:32:00,
2013-10-18 16:37:00,53.1,27.9,30.10,WNW,296,3.0,10.0,41,0.00,,,0.00,meteohub,2013-10-18 21:37:00,
2013-10-18 16:42:00,52.0,28.2,30.10,West,277,2.0,8.0,43,0.00,,,0.00,meteohub,2013-10-18 21:42:00,
2013-10-18 16:47:00,53.1,28.4,30.10,WSW,249,7.0,10.0,44,0.00,,,0.00,meteohub,2013-10-18 21:47:00,
2013-10-18 16:52:00,53.1,29.3,30.10,West,261,4.0,10.0,43,0.00,,,0.00,meteohub,2013-10-18 21:52:00,
2013-10-18 16:57:00,53.1,28.2,30.10,West,262,2.0,11.0,43,0.00,,,0.00,meteohub,2013-10-18 21:57:00,
2013-10-18 17:02:00,52.0,27.9,30.09,SW,219,4.0,11.0,42,0.00,,,0.00,meteohub,2013-10-18 22:02:00,
2013-10-18 17:07:00,52.0,29.5,30.09,West,261,3.0,9.0,43,0.00,,,0.00,meteohub,2013-10-18 22:07:00,
2013-10-18 17:12:00,51.1,27.5,30.09,West,274,2.0,9.0,43,0.00,,,0.00,meteohub,2013-10-18 22:12:00,
2013-10-18 17:17:00,51.1,27.9,30.09,SW,236,6.0,9.0,44,0.00,,,0.00,meteohub,2013-10-18 22:17:00,
2013-10-18 17:22:00,51.1,28.6,30.09,WSW,252,5.0,9.0,42,0.00,,,0.00,meteohub,2013-10-18 22:22:00,
2013-10-18 17:27:00,51.1,29.1,30.09,WSW,245,3.0,9.0,44,0.00,,,0.00,meteohub,2013-10-18 22:27:00,
2013-10-18 17:32:00,51.1,29.8,30.09,WSW,257,1.0,9.0,46,0.00,,,0.00,meteohub,2013-10-18 22:32:00,
2013-10-18 17:37:00,50.0,28.2,30.09,WSW,250,5.0,10.0,47,0.00,,,0.00,meteohub,2013-10-18 22:37:00,
2013-10-18 17:42:00,50.0,28.4,30.09,WSW,257,4.0,10.0,46,0.00,,,0.00,meteohub,2013-10-18 22:42:00,
2013-10-18 17:47:00,50.0,28.8,30.08,WSW,238,3.0,10.0,45,0.00,,,0.00,meteohub,2013-10-18 22:47:00,
2013-10-18 17:52:00,48.9,28.6,30.08,WSW,251,1.0,9.0,47,0.00,,,0.00,meteohub,2013-10-18 22:52:00,
2013-10-18 17:57:00,48.9,28.9,30.08,WSW,254,0.0,9.0,49,0.00,,,0.00,meteohub,2013-10-18 22:57:00,
2013-10-18 18:02:00,48.9,28.2,30.08,WSW,240,6.0,9.0,47,0.00,,,0.00,meteohub,2013-10-18 23:02:00,
2013-10-18 18:07:00,48.0,27.3,30.07,SW,229,4.0,8.0,48,0.00,,,0.00,meteohub,2013-10-18 23:07:00,
2013-10-18 18:12:00,48.0,27.7,30.07,SW,228,6.0,9.0,49,0.00,,,0.00,meteohub,2013-10-18 23:12:00,
2013-10-18 18:17:00,46.9,28.4,30.07,SW,233,4.0,9.0,49,0.00,,,0.00,meteohub,2013-10-18 23:17:00,
2013-10-18 18:22:00,46.9,28.6,30.07,SW,233,0.0,9.0,50,0.00,,,0.00,meteohub,2013-10-18 23:22:00,
2013-10-18 18:27:00,46.9,28.6,30.07,SW,233,0.0,8.0,51,0.00,,,0.00,meteohub,2013-10-18 23:27:00,
2013-10-18 18:32:00,46.0,28.9,30.07,SW,233,0.0,5.0,55,0.00,,,0.00,meteohub,2013-10-18 23:32:00,
2013-10-18 18:37:00,45.0,28.8,30.07,SW,233,0.0,3.0,56,0.00,,,0.00,meteohub,2013-10-18 23:37:00,
2013-10-18 18:42:00,45.0,28.6,30.07,SW,233,0.0,4.0,59,0.00,,,0.00,meteohub,2013-10-18 23:42:00,
2013-10-18 18:47:00,44.1,29.3,30.07,SW,233,0.0,4.0,58,0.00,,,0.00,meteohub,2013-10-18 23:47:00,
2013-10-18 18:52:00,43.0,28.9,30.07,SW,233,0.0,4.0,65,0.00,,,0.00,meteohub,2013-10-18 23:52:00,
2013-10-18 18:57:00,42.1,29.1,30.07,SW,233,0.0,2.0,66,0.00,,,0.00,meteohub,2013-10-18 23:57:00,
2013-10-18 19:02:00,41.0,29.1,30.07,SW,233,0.0,0.0,68,0.00,,,0.00,meteohub,2013-10-19 00:02:00,
2013-10-18 19:07:00,41.0,28.4,30.07,SW,233,0.0,0.0,70,0.00,,,0.00,meteohub,2013-10-19 00:07:00,
2013-10-18 19:12:00,39.9,28.9,30.07,SW,233,0.0,0.0,70,0.00,,,0.00,meteohub,2013-10-19 00:12:00,
2013-10-18 19:17:00,39.0,28.9,30.07,SW,233,0.0,0.0,72,0.00,,,0.00,meteohub,2013-10-19 00:17:00,
2013-10-18 19:22:00,39.0,28.8,30.07,SW,233,0.0,0.0,76,0.00,,,0.00,meteohub,2013-10-19 00:22:00,
2013-10-18 19:27:00,37.9,28.0,30.07,SW,233,0.0,0.0,74,0.00,,,0.00,meteohub,2013-10-19 00:27:00,
2013-10-18 19:32:00,37.9,28.6,30.07,SW,233,0.0,0.0,75,0.00,,,0.00,meteohub,2013-10-19 00:32:00,
2013-10-18 19:37:00,37.0,28.6,30.08,SW,233,0.0,0.0,75,0.00,,,0.00,meteohub,2013-10-19 00:37:00,
2013-10-18 19:42:00,37.0,28.9,30.08,SW,233,0.0,0.0,77,0.00,,,0.00,meteohub,2013-10-19 00:42:00,
2013-10-18 19:47:00,36.0,28.6,30.08,SW,233,0.0,0.0,77,0.00,,,0.00,meteohub,2013-10-19 00:47:00,
2013-10-18 19:52:00,36.0,28.6,30.08,SW,233,0.0,0.0,77,0.00,,,0.00,meteohub,2013-10-19 00:52:00,
2013-10-18 19:57:00,36.0,28.8,30.08,SW,233,0.0,0.0,79,0.00,,,0.00,meteohub,2013-10-19 00:57:00,
2013-10-18 20:02:00,36.0,28.8,30.08,SW,233,0.0,0.0,79,0.00,,,0.00,meteohub,2013-10-19 01:02:00,
2013-10-18 20:07:00,35.1,28.4,30.08,SW,233,0.0,0.0,79,0.00,,,0.00,meteohub,2013-10-19 01:07:00,
2013-10-18 20:12:00,35.1,28.6,30.07,SW,233,0.0,3.0,79,0.00,,,0.00,meteohub,2013-10-19 01:12:00,
2013-10-18 20:17:00,35.1,28.9,30.08,SW,233,1.0,3.0,78,0.00,,,0.00,meteohub,2013-10-19 01:17:00,
2013-10-18 20:22:00,35.1,28.9,30.08,SW,233,0.0,3.0,78,0.00,,,0.00,meteohub,2013-10-19 01:22:00,
2013-10-18 20:27:00,35.1,28.8,30.08,SW,233,0.0,2.0,79,0.00,,,0.00,meteohub,2013-10-19 01:27:00,
2013-10-18 20:32:00,35.1,28.8,30.08,SW,233,0.0,2.0,81,0.00,,,0.00,meteohub,2013-10-19 01:32:00,
2013-10-18 20:37:00,35.1,28.8,30.08,SW,233,0.0,0.0,82,0.00,,,0.00,meteohub,2013-10-19 01:37:00,
2013-10-18 20:42:00,34.0,28.9,30.08,SW,233,0.0,0.0,84,0.00,,,0.00,meteohub,2013-10-19 01:42:00,
2013-10-18 20:47:00,34.0,29.1,30.08,SW,233,0.0,0.0,85,0.00,,,0.00,meteohub,2013-10-19 01:47:00,
2013-10-18 20:52:00,34.0,29.5,30.08,SW,233,0.0,0.0,86,0.00,,,0.00,meteohub,2013-10-19 01:52:00,
2013-10-18 20:57:00,34.0,29.8,30.07,SW,233,0.0,0.0,86,0.00,,,0.00,meteohub,2013-10-19 01:57:00,
2013-10-18 21:02:00,35.1,30.0,30.07,SW,233,1.0,2.0,85,0.00,,,0.00,meteohub,2013-10-19 02:02:00,
2013-10-18 21:07:00,35.1,29.8,30.08,SW,233,0.0,3.0,84,0.00,,,0.00,meteohub,2013-10-19 02:07:00,
2013-10-18 21:12:00,35.1,29.8,30.08,SW,233,0.0,3.0,83,0.00,,,0.00,meteohub,2013-10-19 02:12:00,
2013-10-18 21:17:00,35.1,30.2,30.08,SW,233,0.0,3.0,84,0.00,,,0.00,meteohub,2013-10-19 02:17:00,
2013-10-18 21:22:00,35.1,29.8,30.07,SW,233,0.0,1.0,83,0.00,,,0.00,meteohub,2013-10-19 02:22:00,
2013-10-18 21:27:00,35.1,29.5,30.08,SW,233,0.0,0.0,83,0.00,,,0.00,meteohub,2013-10-19 02:27:00,
2013-10-18 21:32:00,35.1,29.3,30.08,SW,233,0.0,0.0,84,0.00,,,0.00,meteohub,2013-10-19 02:32:00,
2013-10-18 21:37:00,35.1,29.1,30.07,SW,233,0.0,0.0,83,0.00,,,0.00,meteohub,2013-10-19 02:37:00,
2013-10-18 21:42:00,35.1,29.3,30.08,SW,233,2.0,6.0,83,0.00,,,0.00,meteohub,2013-10-19 02:42:00,
2013-10-18 21:47:00,34.0,29.3,30.08,SW,233,1.0,6.0,83,0.00,,,0.00,meteohub,2013-10-19 02:47:00,
2013-10-18 21:52:00,34.0,29.1,30.08,SW,233,1.0,6.0,83,0.00,,,0.00,meteohub,2013-10-19 02:52:00,
2013-10-18 21:57:00,34.0,29.3,30.08,SW,233,0.0,3.0,85,0.00,,,0.00,meteohub,2013-10-19 02:57:00,
2013-10-18 22:02:00,34.0,29.1,30.08,SW,233,0.0,3.0,85,0.00,,,0.00,meteohub,2013-10-19 03:02:00,
2013-10-18 22:07:00,34.0,28.9,30.08,SW,233,0.0,3.0,85,0.00,,,0.00,meteohub,2013-10-19 03:07:00,
2013-10-18 22:12:00,34.0,28.8,30.08,SW,233,0.0,0.0,85,0.00,,,0.00,meteohub,2013-10-19 03:12:00,
2013-10-18 22:17:00,34.0,28.6,30.08,SW,233,0.0,0.0,85,0.00,,,0.00,meteohub,2013-10-19 03:17:00,
2013-10-18 22:22:00,33.1,28.6,30.08,SW,233,0.0,0.0,86,0.00,,,0.00,meteohub,2013-10-19 03:22:00,
2013-10-18 22:27:00,33.1,28.8,30.08,SW,233,0.0,0.0,86,0.00,,,0.00,meteohub,2013-10-19 03:27:00,
2013-10-18 22:32:00,33.1,28.6,30.08,SW,233,0.0,0.0,87,0.00,,,0.00,meteohub,2013-10-19 03:32:00,
2013-10-18 22:37:00,33.1,28.4,30.08,SW,233,0.0,0.0,87,0.00,,,0.00,meteohub,2013-10-19 03:37:00,
2013-10-18 22:42:00,33.1,28.6,30.08,SW,233,0.0,0.0,87,0.00,,,0.00,meteohub,2013-10-19 03:42:00,
2013-10-18 22:47:00,32.0,28.4,30.08,SW,233,0.0,0.0,87,0.00,,,0.00,meteohub,2013-10-19 03:47:00,
2013-10-18 22:52:00,32.0,28.2,30.07,SW,233,0.0,0.0,87,0.00,,,0.00,meteohub,2013-10-19 03:52:00,
2013-10-18 22:57:00,32.0,28.6,30.08,SW,233,0.0,0.0,88,0.00,,,0.00,meteohub,2013-10-19 03:57:00,
2013-10-18 23:01:00,32.0,28.6,30.07,SW,233,0.0,2.0,88,0.00,,,0.00,meteohub,2013-10-19 04:01:00,
2013-10-18 23:02:00,32.0,28.6,30.07,SW,233,0.0,2.0,88,0.00,,,0.00,meteohub,2013-10-19 04:02:00,
2013-10-18 23:03:00,32.0,28.6,30.07,SW,233,0.0,2.0,88,0.00,,,0.00,meteohub,2013-10-19 04:03:00,
2013-10-18 23:04:00,32.0,28.9,30.07,SW,233,0.0,2.0,88,0.00,,,0.00,meteohub,2013-10-19 04:04:00,
2013-10-18 23:06:00,32.0,28.6,30.07,SW,233,0.0,2.0,88,0.00,,,0.00,meteohub,2013-10-19 04:06:00,
2013-10-18 23:11:00,32.0,28.4,30.07,SW,233,0.0,2.0,88,0.00,,,0.00,meteohub,2013-10-19 04:11:00,
2013-10-18 23:16:00,32.0,28.4,30.07,SW,233,0.0,0.0,88,0.00,,,0.00,meteohub,2013-10-19 04:16:00,
2013-10-18 23:21:00,32.0,28.2,30.07,SW,233,0.0,0.0,89,0.00,,,0.00,meteohub,2013-10-19 04:21:00,
2013-10-18 23:26:00,32.0,28.4,30.07,SW,233,0.0,0.0,95,0.00,,,0.00,meteohub,2013-10-19 04:26:00,
2013-10-18 23:31:00,30.9,28.4,30.07,SW,233,0.0,0.0,89,0.00,,,0.00,meteohub,2013-10-19 04:31:00,
2013-10-18 23:36:00,30.9,28.4,30.06,SW,233,0.0,0.0,89,0.00,,,0.00,meteohub,2013-10-19 04:36:00,
2013-10-18 23:41:00,30.9,28.4,30.06,SW,233,0.0,0.0,89,0.00,,,0.00,meteohub,2013-10-19 04:41:00,
2013-10-18 23:46:00,30.9,28.4,30.06,SW,233,0.0,0.0,89,0.00,,,0.00,meteohub,2013-10-19 04:46:00,
2013-10-18 23:51:00,30.9,28.6,30.07,SW,233,0.0,0.0,89,0.00,,,0.00,meteohub,2013-10-19 04:51:00,
2013-10-18 23:56:00,30.9,28.8,30.06,SW,233,0.0,0.0,89,0.00,,,0.00,meteohub,2013-10-19 04:56:00,